Location: Joplin, MO
(37.0842°N, 94.5133°W)
Time: 19:53:24
(UTC+02:00)

Transit 2A Rocket - Pass Details

Date: 30 March 2023
Orbit: 584 x 914 km, 66.7° (Epoch: 09 June)

Event Time Altitude Azimuth Distance (km) Brightness Sun altitude
Rises 03:51:46 0° 330° (NNW) 3,549 9.2 -15.3°
Reaches altitude 10° 03:54:20 10° 328° (NNW) 2,591 8.4 -15.8°
Maximum altitude 04:00:22 72° 245° (WSW) 919 5.5 -16.9°
Enters shadow 04:05:36 12° 163° (SSE) 2,278 7.1 -17.9°
Drops below altitude 10° 04:06:01 10° 162° (SSE) 2,430 - -18.0°
Sets 04:08:22 0° 160° (SSE) 3,313 - -18.4°
